FW8288 Weather Reports


Display with metric or nautical units.
time (UTC)temp
F
wind
direction
speed
MPH
gust
MPH
rain 1hr
in
rain 24hr
in
rain mn
in
humidity
%
barometer
mb
20260906221605 87 167 0.0 1.0 0.00 0.03 0.03 71 1012.8
20260906214607 86 0 0.0 0.0 0.00 0.04 0.03 74 1013.1
20260906213106 85 0 0.0 1.0 0.00 0.04 0.03 73 1013.3
20260906211604 85 0 0.0 0.0 0.00 0.04 0.03 76 1013.5
20260906210116 84 0 0.0 0.0 0.01 0.04 0.03 77 1013.5
20260906204604 83 0 0.0 1.0 0.01 0.04 0.03 81 1013.8
20260906203104 81 167 0.0 0.0 0.01 0.04 0.03 85 1014.0
20260906201603 80 167 0.0 2.0 0.01 0.04 0.03 86 1013.9
20260906194604 79 0 0.0 0.0 0.02 0.03 0.02 88 1014.2
20260906193102 79 0 0.0 0.0 0.02 0.03 0.02 88 1014.7
20260906191606 79 0 0.0 0.0 0.02 0.03 0.02 85 1015.0
20260906190106 80 0 0.0 6.0 0.00 0.01 0.00 82 1015.3
20260906184610 80 167 1.0 10.0 0.00 0.01 0.00 82 1015.5
20260906183105 83 167 4.0 10.0 0.00 0.01 0.00 77 1015.3
20260906181604 85 167 4.0 9.0 0.00 0.01 0.00 73 1015.2
20260906180106 89 166 1.0 4.0 0.00 0.01 0.00 66 1014.8
20260906174602 89 167 0.0 4.0 0.00 0.01 0.00 65 1014.8
20260906173107 89 166 0.0 0.0 0.00 0.01 0.00 67 1014.7
20260906171601 91 167 0.0 3.0 0.00 0.01 0.00 65 1015.1
20260906170103 91 167 2.0 4.0 0.00 0.01 0.00 65 1015.2
20260906164617 90 166 1.0 3.0 0.00 0.01 0.00 64 1015.2
20260906163101 88 167 2.0 4.0 0.00 0.01 0.00 67 1015.1
20260906161602 86 166 1.0 3.0 0.00 0.01 0.00 72 1015.3
20260906160110 86 0 0.0 2.0 0.00 0.01 0.00 77 1015.1
20260906154609 86 0 0.0 0.0 0.00 0.01 0.00 77 1015.3
20260906153104 86 0 0.0 2.0 0.00 0.01 0.00 77 1015.3
20260906151608 86 0 0.0 0.0 0.00 0.01 0.00 77 1015.1
20260906150109 85 0 0.0 0.0 0.00 0.01 0.00 80 1015.0
20260906144626 85 0 0.0 0.0 0.00 0.01 0.00 81 1015.1
20260906143115 85 0 0.0 0.0 0.00 0.01 0.00 82 1015.1
20260906141605 84 0 0.0 0.0 0.00 0.01 0.00 82 1015.1
20260906140107 84 0 0.0 0.0 0.00 0.01 0.00 82 1015.1
20260906134604 84 0 0.0 0.0 0.00 0.01 0.00 85 1014.9
20260906133109 83 0 0.0 0.0 0.00 0.01 0.00 87 1014.8
20260906131605 81 0 0.0 0.0 0.00 0.01 0.00 89 1014.8
20260906130103 80 0 0.0 0.0 0.00 0.01 0.00 90 1014.6
20260906124605 80 0 0.0 0.0 0.00 0.01 0.00 92 1014.4
20260906123110 79 0 0.0 0.0 0.00 0.01 0.00 92 1014.4
20260906121602 79 0 0.0 0.0 0.00 0.01 0.00 92 1014.0
20260906120122 79 0 0.0 0.0 0.00 0.01 0.00 92 1013.6
20260906114601 79 0 0.0 0.0 0.00 0.01 0.00 92 1013.6
20260906113101 79 0 0.0 0.0 0.00 0.01 0.00 92 1013.4
20260906111604 79 0 0.0 0.0 0.00 0.01 0.00 92 1013.4
20260906110108 79 0 0.0 0.0 0.00 0.01 0.00 91 1013.4
20260906104604 79 0 0.0 0.0 0.00 0.01 0.00 91 1013.4
20260906103101 79 0 0.0 0.0 0.00 0.01 0.00 90 1013.3
20260906101603 80 0 0.0 0.0 0.00 0.01 0.00 90 1013.3
20260906100110 80 0 0.0 0.0 0.00 0.01 0.00 90 1013.2
20260906094601 80 0 0.0 0.0 0.00 0.01 0.00 89 1012.9
20260906093119 80 0 0.0 0.0 0.00 0.01 0.00 89 1012.9
20260906091604 80 0 0.0 0.0 0.00 0.01 0.00 89 1012.8
20260906090135 80 0 0.0 0.0 0.00 0.01 0.00 88 1012.9
20260906084606 80 0 0.0 0.0 0.00 0.01 0.00 88 1012.8
20260906083102 80 0 0.0 0.0 0.00 0.01 0.00 88 1012.8
20260906081603 81 0 0.0 0.0 0.00 0.01 0.00 88 1012.8
20260906080105 81 0 0.0 0.0 0.00 0.01 0.00 87 1013.0
20260906074601 81 0 0.0 0.0 0.00 0.01 0.00 86 1013.0
20260906073100 81 0 0.0 0.0 0.00 0.01 0.00 86 1013.1
20260906071610 81 0 0.0 0.0 0.00 0.01 0.00 86 1013.2
20260906070105 82 0 0.0 0.0 0.00 0.01 0.00 85 1013.3
20260906064604 82 0 0.0 1.0 0.00 0.01 0.00 85 1013.4
20260906063104 82 0 0.0 1.0 0.00 0.01 0.00 85 1013.5
20260906061606 82 167 0.0 0.0 0.00 0.01 0.00 85 1013.3
20260906060104 82 0 0.0 2.0 0.00 0.01 0.00 84 1013.4
20260906054601 82 0 0.0 1.0 0.00 0.01 0.00 84 1013.3
20260906053102 82 167 0.0 1.0 0.00 0.01 0.00 83 1013.4
20260906051605 82 0 0.0 2.0 0.00 0.01 0.00 83 1013.5
20260906050132 82 0 0.0 1.0 0.00 0.01 0.00 83 1013.6
20260906044603 83 0 0.0 3.0 0.00 0.01 0.01 82 1013.6
20260906043110 83 167 0.0 3.0 0.00 0.01 0.01 82 1013.5
20260906041603 83 167 0.0 2.0 0.00 0.01 0.01 82 1013.5
20260906040107 83 167 0.0 1.0 0.00 0.01 0.01 81 1013.8
20260906034601 83 0 0.0 1.0 0.00 0.01 0.01 81 1013.8
20260906033106 83 167 0.0 1.0 0.00 0.01 0.01 80 1013.6
20260906031601 83 167 0.0 1.0 0.00 0.01 0.01 79 1013.6
20260906030133 84 0 0.0 1.0 0.00 0.01 0.01 78 1013.5
20260906024604 84 167 0.0 2.0 0.00 0.01 0.01 78 1013.3
20260906023126 84 167 0.0 2.0 0.00 0.01 0.01 77 1013.0
20260906021614 84 0 1.0 3.0 0.00 0.01 0.01 77 1012.9
20260906020107 84 0 0.0 0.0 0.00 0.01 0.01 78 1012.6
20260906014628 84 0 0.0 1.0 0.00 0.01 0.01 81 1012.5
20260906013104 84 0 0.0 1.0 0.00 0.01 0.01 81 1012.5
20260906011607 84 166 0.0 2.0 0.00 0.01 0.01 81 1012.3
20260906010105 85 167 0.0 0.0 0.00 0.01 0.01 81 1012.4
20260906004606 86 0 0.0 0.0 0.00 0.01 0.01 76 1012.2
20260906003109 86 0 0.0 0.0 0.00 0.01 0.01 72 1012.3
20260906001603 87 0 0.0 2.0 0.00 0.01 0.01 71 1012.4
20260906000106 87 0 0.0 3.0 0.00 0.01 0.01 72 1012.4
20260905234615 87 0 0.0 3.0 0.00 0.01 0.01 72 1012.6
20260905233103 87 167 0.0 2.0 0.00 0.01 0.01 73 1012.8
20260905231603 86 0 0.0 1.0 0.00 0.01 0.01 77 1012.6
20260905230108 86 0 0.0 0.0 0.00 0.01 0.01 78 1012.6
20260905224610 85 0 0.0 0.0 0.00 0.01 0.01 77 1012.3
20260905223101 84 0 0.0 2.0 0.00 0.01 0.01 79 1012.2